AFR617 KMIA-TFFR

Flight info

Callsign AFR617
Flight time 2h 58m
Altitude 37000
Route KLADA2 BITAC Y290 HAGIT Y421 MEEGL DCT MODUX R888 GORET GORET2Z
Aircraft A320/M-SDE2E3FGIJ1RWY/HB1

Departure

Time 2026-04-21 18:35
Airport Miami International Airport (KMIA)

Arrival

Time 2026-04-21 21:34
Airport Maryse Condé International Airport (TFFR)
Time Latitude Longitude Altitude Speed Heading
2026-04-21 18:02 25.79199 -80.27303 17 ft 0 kts 258°
2026-04-21 18:22 25.79202 -80.27288 15 ft 4 kts 258°
2026-04-21 18:22 25.79206 -80.27265 16 ft 4 kts 257°
2026-04-21 18:23 25.79215 -80.27239 18 ft 4 kts 221°
2026-04-21 18:23 25.79231 -80.27231 17 ft 0 kts 177°
2026-04-21 18:23 25.79208 -80.27230 16 ft 4 kts 177°
2026-04-21 18:23 25.79181 -80.27228 15 ft 4 kts 177°
2026-04-21 18:24 25.79154 -80.27227 15 ft 4 kts 177°
2026-04-21 18:24 25.79127 -80.27225 15 ft 4 kts 177°
2026-04-21 18:24 25.79100 -80.27224 15 ft 4 kts 177°
2026-04-21 18:24 25.79073 -80.27223 15 ft 4 kts 177°
2026-04-21 18:25 25.79045 -80.27221 15 ft 4 kts 177°
2026-04-21 18:25 25.79018 -80.27220 15 ft 4 kts 177°
2026-04-21 18:25 25.78993 -80.27219 15 ft 2 kts 177°
2026-04-21 18:25 25.78992 -80.27219 15 ft 0 kts 177°
2026-04-21 18:28 25.78976 -80.27218 16 ft 7 kts 177°
2026-04-21 18:28 25.78928 -80.27281 15 ft 18 kts 267°
2026-04-21 18:29 25.78922 -80.27430 15 ft 21 kts 268°
2026-04-21 18:29 25.78974 -80.27514 17 ft 11 kts 288°
2026-04-21 18:29 25.78958 -80.27606 15 ft 13 kts 257°
2026-04-21 18:29 25.78944 -80.27733 15 ft 20 kts 267°
2026-04-21 18:30 25.78936 -80.27901 16 ft 17 kts 269°
2026-04-21 18:30 25.78987 -80.28024 16 ft 19 kts 300°
2026-04-21 18:30 25.79056 -80.28161 15 ft 22 kts 298°
2026-04-21 18:30 25.79139 -80.28313 15 ft 24 kts 301°
2026-04-21 18:31 25.79229 -80.28426 15 ft 18 kts 314°
2026-04-21 18:31 25.79291 -80.28552 15 ft 19 kts 300°
2026-04-21 18:31 25.79361 -80.28693 15 ft 23 kts 298°
2026-04-21 18:31 25.79448 -80.28860 15 ft 27 kts 299°
2026-04-21 18:32 25.79545 -80.29052 15 ft 30 kts 301°
2026-04-21 18:32 25.79655 -80.29264 15 ft 32 kts 300°
2026-04-21 18:32 25.79766 -80.29481 15 ft 32 kts 299°
2026-04-21 18:32 25.79868 -80.29680 14 ft 22 kts 300°
2026-04-21 18:33 25.79924 -80.29807 14 ft 16 kts 294°
2026-04-21 18:33 25.79968 -80.29928 13 ft 18 kts 287°
2026-04-21 18:33 25.80002 -80.30066 13 ft 18 kts 285°
2026-04-21 18:33 25.80047 -80.30131 14 ft 9 kts 354°
2026-04-21 18:34 25.80074 -80.30081 13 ft 8 kts 84°
2026-04-21 18:34 25.80075 -80.30023 13 ft 8 kts 88°
2026-04-21 18:34 25.80082 -80.29820 13 ft 60 kts 88°
2026-04-21 18:34 25.80114 -80.29106 17 ft 122 kts 87°
2026-04-21 18:35 25.80143 -80.28393 15 ft 156 kts 87°
2026-04-21 18:35 25.80227 -80.26678 583 ft 168 kts 86°
2026-04-21 18:35 25.80091 -80.25391 1163 ft 171 kts 114°
2026-04-21 18:35 25.79555 -80.24200 1725 ft 173 kts 117°
2026-04-21 18:36 25.79019 -80.23001 2278 ft 174 kts 116°
2026-04-21 18:36 25.78481 -80.21780 2784 ft 177 kts 116°
2026-04-21 18:36 25.77922 -80.20523 3155 ft 191 kts 117°
2026-04-21 18:36 25.77515 -80.19614 3305 ft 206 kts 117°
2026-04-21 18:37 25.76842 -80.18119 3565 ft 226 kts 117°
2026-04-21 18:37 25.76076 -80.16502 3928 ft 244 kts 119°
2026-04-21 18:37 25.75251 -80.14834 4592 ft 248 kts 119°
2026-04-21 18:37 25.74410 -80.13148 5301 ft 251 kts 119°
2026-04-21 18:38 25.73563 -80.11445 6005 ft 254 kts 117°
2026-04-21 18:38 25.72863 -80.09573 6445 ft 272 kts 111°
2026-04-21 18:38 25.72196 -80.07575 7121 ft 279 kts 110°
2026-04-21 18:38 25.71525 -80.05538 7887 ft 283 kts 110°
2026-04-21 18:39 25.70849 -80.03478 8652 ft 286 kts 110°
2026-04-21 18:39 25.70160 -80.01394 9407 ft 289 kts 110°
2026-04-21 18:39 25.69462 -79.99281 10063 ft 297 kts 110°
2026-04-21 18:39 25.68724 -79.97043 10268 ft 321 kts 110°
2026-04-21 18:40 25.67936 -79.94656 10629 ft 336 kts 110°
2026-04-21 18:40 25.67127 -79.92203 11255 ft 341 kts 110°
2026-04-21 18:40 25.66306 -79.89720 11938 ft 345 kts 110°
2026-04-21 18:40 25.65464 -79.87184 12127 ft 358 kts 109°
2026-04-21 18:41 25.64592 -79.84563 12648 ft 367 kts 109°
2026-04-21 18:41 25.63702 -79.81893 13300 ft 370 kts 110°
2026-04-21 18:41 25.62805 -79.79208 13939 ft 375 kts 109°
2026-04-21 18:41 25.61889 -79.76469 14456 ft 381 kts 109°
2026-04-21 18:42 25.60959 -79.73692 14968 ft 386 kts 109°
2026-04-21 18:42 25.60019 -79.70886 15537 ft 389 kts 109°
2026-04-21 18:42 25.59059 -79.68063 16121 ft 393 kts 110°
2026-04-21 18:42 25.58067 -79.65283 16744 ft 394 kts 111°
2026-04-21 18:43 25.57025 -79.62449 17205 ft 401 kts 112°
2026-04-21 18:43 25.55959 -79.59585 17726 ft 405 kts 112°
2026-04-21 18:43 25.54865 -79.56636 18220 ft 410 kts 112°
2026-04-21 18:43 25.53796 -79.53744 18763 ft 413 kts 112°
2026-04-21 18:44 25.52707 -79.50792 19263 ft 415 kts 112°
2026-04-21 18:44 25.51617 -79.47823 19736 ft 418 kts 111°
2026-04-21 18:44 25.50517 -79.44825 20200 ft 422 kts 111°
2026-04-21 18:44 25.49411 -79.41803 20656 ft 426 kts 111°
2026-04-21 18:45 25.48292 -79.38753 21116 ft 429 kts 112°
2026-04-21 18:45 25.47162 -79.35681 21595 ft 432 kts 112°
2026-04-21 18:45 25.46026 -79.32587 22074 ft 435 kts 111°
2026-04-21 18:45 25.44883 -79.29474 22537 ft 439 kts 111°
2026-04-21 18:46 25.43727 -79.26330 22984 ft 443 kts 112°
2026-04-21 18:46 25.42559 -79.23165 23416 ft 446 kts 112°
2026-04-21 18:46 25.41378 -79.19975 23820 ft 450 kts 112°
2026-04-21 18:46 25.40190 -79.16762 24174 ft 453 kts 112°
2026-04-21 18:47 25.38996 -79.13527 24531 ft 456 kts 112°
2026-04-21 18:47 25.37796 -79.10272 24881 ft 458 kts 112°
2026-04-21 18:47 25.36586 -79.07000 25227 ft 461 kts 112°
2026-04-21 18:47 25.35368 -79.03709 25561 ft 463 kts 112°
2026-04-21 18:48 25.34144 -79.00405 25888 ft 466 kts 112°
2026-04-21 18:48 25.32911 -78.97082 26208 ft 468 kts 112°
2026-04-21 18:48 25.31672 -78.93745 26531 ft 471 kts 112°
2026-04-21 18:48 25.30433 -78.90406 26836 ft 473 kts 112°
2026-04-21 18:49 25.29182 -78.87033 27156 ft 475 kts 112°
2026-04-21 18:49 25.27922 -78.83646 27469 ft 478 kts 112°
2026-04-21 18:49 25.27084 -78.81395 27675 ft 479 kts 112°
2026-04-21 18:49 25.25380 -78.76825 28072 ft 482 kts 112°
2026-04-21 18:50 25.24097 -78.73392 28370 ft 485 kts 112°
2026-04-21 18:50 25.22809 -78.69947 28652 ft 487 kts 112°
2026-04-21 18:50 25.21513 -78.66483 28935 ft 489 kts 112°
2026-04-21 18:50 25.20210 -78.63005 29215 ft 491 kts 112°
2026-04-21 18:51 25.18899 -78.59512 29450 ft 494 kts 113°
2026-04-21 18:51 25.17575 -78.56006 29696 ft 496 kts 114°
2026-04-21 18:51 25.16200 -78.52511 29954 ft 498 kts 115°
2026-04-21 18:51 25.14774 -78.49021 30201 ft 500 kts 115°
2026-04-21 18:52 25.13317 -78.45531 30411 ft 502 kts 116°
2026-04-21 18:52 25.11846 -78.42030 30596 ft 504 kts 116°
2026-04-21 18:52 25.10371 -78.38516 30766 ft 506 kts 116°
2026-04-21 18:52 25.08898 -78.34976 30940 ft 509 kts 116°
2026-04-21 18:53 25.07430 -78.31415 31099 ft 511 kts 116°
2026-04-21 18:53 25.05964 -78.27838 31317 ft 512 kts 116°
2026-04-21 18:53 25.04497 -78.24258 31550 ft 513 kts 116°
2026-04-21 18:53 25.03030 -78.20676 31756 ft 513 kts 116°
2026-04-21 18:54 25.01557 -78.17087 31982 ft 514 kts 116°
2026-04-21 18:54 25.00074 -78.13494 32204 ft 515 kts 116°
2026-04-21 18:54 24.98586 -78.09903 32425 ft 516 kts 116°
2026-04-21 18:54 24.97094 -78.06303 32644 ft 517 kts 116°
2026-04-21 18:55 24.96105 -78.03917 32787 ft 517 kts 116°
2026-04-21 18:55 24.94104 -77.99084 33100 ft 519 kts 117°
2026-04-21 18:55 24.92607 -77.95465 33328 ft 519 kts 117°
2026-04-21 18:55 24.91105 -77.91845 33517 ft 521 kts 117°
2026-04-21 18:56 24.89595 -77.88214 33724 ft 522 kts 117°
2026-04-21 18:56 24.88100 -77.84625 33930 ft 523 kts 117°
2026-04-21 18:56 24.86581 -77.80984 34164 ft 524 kts 117°
2026-04-21 18:56 24.85061 -77.77338 34367 ft 524 kts 117°
2026-04-21 18:57 24.83543 -77.73688 34575 ft 524 kts 117°
2026-04-21 18:57 24.82026 -77.70044 34784 ft 524 kts 117°
2026-04-21 18:57 24.80503 -77.66392 34886 ft 526 kts 118°
2026-04-21 18:57 24.78972 -77.62727 35018 ft 528 kts 118°
2026-04-21 18:58 24.77434 -77.59051 35173 ft 529 kts 118°
2026-04-21 18:58 24.75894 -77.55372 35334 ft 530 kts 118°
2026-04-21 18:58 24.74335 -77.51705 35499 ft 529 kts 119°
2026-04-21 18:58 24.72725 -77.48065 35676 ft 529 kts 120°
2026-04-21 18:59 24.71073 -77.44453 35851 ft 528 kts 121°
2026-04-21 18:59 24.69399 -77.40859 36030 ft 528 kts 121°
2026-04-21 18:59 24.67720 -77.37273 36199 ft 527 kts 121°
2026-04-21 18:59 24.66048 -77.33691 36376 ft 527 kts 121°
2026-04-21 19:00 24.64388 -77.30098 36538 ft 527 kts 121°
2026-04-21 19:00 24.62741 -77.26500 36696 ft 527 kts 121°
2026-04-21 19:00 24.61100 -77.22905 36850 ft 527 kts 121°
2026-04-21 19:00 24.59458 -77.19307 36997 ft 527 kts 121°
2026-04-21 19:01 24.57814 -77.15715 37144 ft 526 kts 121°
2026-04-21 19:01 24.54518 -77.08544 37179 ft 525 kts 121°
2026-04-21 19:02 24.51219 -77.01388 37180 ft 525 kts 121°
2026-04-21 19:02 24.47919 -76.94235 37183 ft 525 kts 121°
2026-04-21 19:03 24.44620 -76.87084 37178 ft 525 kts 121°
2026-04-21 19:03 24.41316 -76.79939 37142 ft 525 kts 120°
2026-04-21 19:04 24.38003 -76.72789 37153 ft 526 kts 121°
2026-04-21 19:04 24.34688 -76.65640 37164 ft 526 kts 121°
2026-04-21 19:05 24.31365 -76.58489 37170 ft 526 kts 121°
2026-04-21 19:05 24.28038 -76.51347 37176 ft 526 kts 121°
2026-04-21 19:06 24.24709 -76.44202 37181 ft 526 kts 121°
2026-04-21 19:06 24.21370 -76.37071 37182 ft 526 kts 121°
2026-04-21 19:07 24.18029 -76.29939 37180 ft 526 kts 121°
2026-04-21 19:07 24.14701 -76.22808 37180 ft 526 kts 121°
2026-04-21 19:08 24.11373 -76.15678 37173 ft 526 kts 121°
2026-04-21 19:08 24.08036 -76.08557 37176 ft 525 kts 121°
2026-04-21 19:09 24.04684 -76.01455 37173 ft 525 kts 121°
2026-04-21 19:09 24.01326 -75.94362 37173 ft 525 kts 121°
2026-04-21 19:10 23.97976 -75.87264 37173 ft 525 kts 121°
2026-04-21 19:10 23.94629 -75.80175 37169 ft 525 kts 121°
2026-04-21 19:11 23.91274 -75.73089 37165 ft 525 kts 121°
2026-04-21 19:11 23.87914 -75.66017 37166 ft 524 kts 121°
2026-04-21 19:12 23.85125 -75.60137 37161 ft 524 kts 121°
2026-04-21 19:12 23.81201 -75.51873 37157 ft 524 kts 121°
2026-04-21 19:13 23.77839 -75.44807 37154 ft 524 kts 121°
2026-04-21 19:13 23.74475 -75.37750 37156 ft 524 kts 121°
2026-04-21 19:14 23.71110 -75.30699 37156 ft 524 kts 121°
2026-04-21 19:14 23.67745 -75.23649 37155 ft 524 kts 121°
2026-04-21 19:15 23.64374 -75.16607 37120 ft 524 kts 121°
2026-04-21 19:15 23.60989 -75.09578 37125 ft 524 kts 121°
2026-04-21 19:16 23.57628 -75.02591 37142 ft 524 kts 121°
2026-04-21 19:16 23.54229 -74.95515 37138 ft 524 kts 121°
2026-04-21 19:17 23.49190 -74.85018 37133 ft 523 kts 121°
2026-04-21 19:17 23.45798 -74.78009 37143 ft 523 kts 121°
2026-04-21 19:18 23.42403 -74.71000 37138 ft 523 kts 121°
2026-04-21 19:18 23.39012 -74.63992 37139 ft 523 kts 121°
2026-04-21 19:19 23.35616 -74.56992 37137 ft 523 kts 121°
2026-04-21 19:19 23.32218 -74.49998 37133 ft 523 kts 121°
2026-04-21 19:20 23.28819 -74.43003 37124 ft 523 kts 121°
2026-04-21 19:20 23.25416 -74.36011 37106 ft 523 kts 121°
2026-04-21 19:21 23.22011 -74.29025 37116 ft 523 kts 121°
2026-04-21 19:21 23.18599 -74.22037 37118 ft 523 kts 121°
2026-04-21 19:22 23.15759 -74.16234 37121 ft 523 kts 121°
2026-04-21 19:22 23.12340 -74.09256 37123 ft 523 kts 122°
2026-04-21 19:23 23.08918 -74.02277 37119 ft 523 kts 121°
2026-04-21 19:23 23.05503 -73.95296 37123 ft 523 kts 121°
2026-04-21 19:24 23.02084 -73.88326 37121 ft 523 kts 122°
2026-04-21 19:24 22.98652 -73.81365 37121 ft 523 kts 122°
2026-04-21 19:25 22.95222 -73.74409 37120 ft 523 kts 122°
2026-04-21 19:25 22.91788 -73.67457 37119 ft 523 kts 122°
2026-04-21 19:26 22.88351 -73.60515 37074 ft 522 kts 122°
2026-04-21 19:26 22.84909 -73.53580 37090 ft 522 kts 122°
2026-04-21 19:27 22.81477 -73.46642 37104 ft 522 kts 122°
2026-04-21 19:27 22.78051 -73.39709 37108 ft 522 kts 122°
2026-04-21 19:28 22.74608 -73.32787 37110 ft 522 kts 122°
2026-04-21 19:28 22.71159 -73.25874 37108 ft 521 kts 122°
2026-04-21 19:29 22.67715 -73.18968 37111 ft 521 kts 122°
2026-04-21 19:29 22.64266 -73.12067 37108 ft 521 kts 122°
2026-04-21 19:30 22.60819 -73.05168 37106 ft 521 kts 122°
2026-04-21 19:30 22.57371 -72.98277 37105 ft 521 kts 122°
2026-04-21 19:31 22.53917 -72.91388 37103 ft 521 kts 122°
2026-04-21 19:31 22.50463 -72.84504 37103 ft 520 kts 122°
2026-04-21 19:32 22.47013 -72.77628 37074 ft 520 kts 122°
2026-04-21 19:32 22.43566 -72.70752 37087 ft 520 kts 122°
2026-04-21 19:33 22.40111 -72.63893 37089 ft 520 kts 122°
2026-04-21 19:33 22.36642 -72.57043 37093 ft 519 kts 122°
2026-04-21 19:34 22.33177 -72.50198 37090 ft 519 kts 122°
2026-04-21 19:34 22.29724 -72.43356 37091 ft 519 kts 122°
2026-04-21 19:35 22.24533 -72.33107 37083 ft 519 kts 122°
2026-04-21 19:36 22.21059 -72.26283 37085 ft 519 kts 122°
2026-04-21 19:36 22.17592 -72.19463 37082 ft 518 kts 122°
2026-04-21 19:37 22.14123 -72.12643 37083 ft 518 kts 122°
2026-04-21 19:37 22.10653 -72.05827 37080 ft 518 kts 122°
2026-04-21 19:38 22.07209 -71.99063 37055 ft 518 kts 122°
2026-04-21 19:38 22.03735 -71.92258 37063 ft 518 kts 122°
2026-04-21 19:39 22.00232 -71.85422 37074 ft 518 kts 122°
2026-04-21 19:39 21.96748 -71.78634 37082 ft 517 kts 123°
2026-04-21 19:40 21.93267 -71.71851 37077 ft 517 kts 122°
2026-04-21 19:40 21.89790 -71.65075 37077 ft 517 kts 123°
2026-04-21 19:41 21.86334 -71.58344 37076 ft 517 kts 123°
2026-04-21 19:41 21.82849 -71.51576 37071 ft 517 kts 123°
2026-04-21 19:42 21.79363 -71.44820 37069 ft 517 kts 123°
2026-04-21 19:42 21.75876 -71.38062 37069 ft 516 kts 123°
2026-04-21 19:43 21.72389 -71.31308 37074 ft 516 kts 123°
2026-04-21 19:43 21.68900 -71.24562 37074 ft 516 kts 123°
2026-04-21 19:44 21.65407 -71.17824 37054 ft 516 kts 123°
2026-04-21 19:44 21.61911 -71.11090 37063 ft 516 kts 123°
2026-04-21 19:45 21.58381 -71.04385 37060 ft 514 kts 127°
2026-04-21 19:45 21.53999 -70.98434 37061 ft 506 kts 136°
2026-04-21 19:46 21.49376 -70.92721 37062 ft 507 kts 136°
2026-04-21 19:46 21.44760 -70.87001 37056 ft 507 kts 136°
2026-04-21 19:47 21.40147 -70.81287 37056 ft 506 kts 136°
2026-04-21 19:47 21.35526 -70.75583 37058 ft 506 kts 136°
2026-04-21 19:48 21.30905 -70.69883 37026 ft 506 kts 136°
2026-04-21 19:48 21.26294 -70.64185 37039 ft 506 kts 136°
2026-04-21 19:49 21.21675 -70.58497 37052 ft 506 kts 136°
2026-04-21 19:49 21.17051 -70.52818 37055 ft 505 kts 136°
2026-04-21 19:50 21.13215 -70.48096 37061 ft 505 kts 136°
2026-04-21 19:50 21.07821 -70.41461 37057 ft 505 kts 136°
2026-04-21 19:51 21.03199 -70.35794 37044 ft 505 kts 136°
2026-04-21 19:51 20.98578 -70.30129 37045 ft 505 kts 136°
2026-04-21 19:52 20.93957 -70.24472 37025 ft 505 kts 136°
2026-04-21 19:52 20.89336 -70.18823 37035 ft 504 kts 136°
2026-04-21 19:53 20.84718 -70.13183 37040 ft 504 kts 136°
2026-04-21 19:53 20.80108 -70.07547 37045 ft 503 kts 136°
2026-04-21 19:54 20.75498 -70.01925 37043 ft 503 kts 136°
2026-04-21 19:54 20.70885 -69.96307 37041 ft 503 kts 136°
2026-04-21 19:55 20.66268 -69.90696 37043 ft 503 kts 136°
2026-04-21 19:55 20.61654 -69.85095 37044 ft 503 kts 136°
2026-04-21 19:56 20.57074 -69.79522 37030 ft 502 kts 136°
2026-04-21 19:56 20.52471 -69.73921 37025 ft 502 kts 136°
2026-04-21 19:57 20.47829 -69.68297 37031 ft 501 kts 136°
2026-04-21 19:57 20.43246 -69.62758 37035 ft 501 kts 136°
2026-04-21 19:58 20.38636 -69.57186 37036 ft 501 kts 136°
2026-04-21 19:58 20.34006 -69.51575 37038 ft 501 kts 136°
2026-04-21 19:59 20.29426 -69.46049 37039 ft 501 kts 136°
2026-04-21 19:59 20.24814 -69.40495 37034 ft 500 kts 136°
2026-04-21 20:00 20.20202 -69.34942 37034 ft 500 kts 136°
2026-04-21 20:00 20.15592 -69.29393 37032 ft 500 kts 136°
2026-04-21 20:01 20.10979 -69.23842 37033 ft 501 kts 136°
2026-04-21 20:01 20.06366 -69.18294 37042 ft 500 kts 136°
2026-04-21 20:02 20.02528 -69.13688 37036 ft 501 kts 136°
2026-04-21 20:02 19.97127 -69.07215 37028 ft 501 kts 136°
2026-04-21 20:03 19.92502 -69.01679 37028 ft 501 kts 136°
2026-04-21 20:03 19.87878 -68.96141 37030 ft 501 kts 136°
2026-04-21 20:04 19.83329 -68.90529 37002 ft 502 kts 134°
2026-04-21 20:04 19.78954 -68.84741 37021 ft 502 kts 133°
2026-04-21 20:05 19.74614 -68.78931 37034 ft 502 kts 133°
2026-04-21 20:05 19.70975 -68.74145 37037 ft 501 kts 133°
2026-04-21 20:06 19.66569 -68.68425 37038 ft 500 kts 134°
2026-04-21 20:06 19.62157 -68.62713 37036 ft 500 kts 134°
2026-04-21 20:07 19.57756 -68.56995 37035 ft 500 kts 133°
2026-04-21 20:07 19.53362 -68.51272 37028 ft 500 kts 133°
2026-04-21 20:08 19.48968 -68.45560 37031 ft 500 kts 134°
2026-04-21 20:08 19.44566 -68.39855 37014 ft 500 kts 133°
2026-04-21 20:09 19.40161 -68.34165 37027 ft 499 kts 133°
2026-04-21 20:09 19.35767 -68.28483 37028 ft 499 kts 133°
2026-04-21 20:10 19.31378 -68.22799 37024 ft 498 kts 133°
2026-04-21 20:10 19.26983 -68.17129 37025 ft 498 kts 133°
2026-04-21 20:11 19.22587 -68.11468 37023 ft 498 kts 133°
2026-04-21 20:11 19.18200 -68.05800 37020 ft 498 kts 133°
2026-04-21 20:12 19.13810 -68.00139 37024 ft 498 kts 133°
2026-04-21 20:12 19.09417 -67.94489 37026 ft 497 kts 133°
2026-04-21 20:13 19.05054 -67.88883 37021 ft 497 kts 133°
2026-04-21 20:13 19.00665 -67.83246 37028 ft 496 kts 133°
2026-04-21 20:14 18.96286 -67.77611 37034 ft 496 kts 133°
2026-04-21 20:14 18.91904 -67.71988 37031 ft 496 kts 133°
2026-04-21 20:15 18.87518 -67.66379 37024 ft 495 kts 133°
2026-04-21 20:15 18.83129 -67.60771 37025 ft 495 kts 133°
2026-04-21 20:16 18.78740 -67.55167 37021 ft 495 kts 133°
2026-04-21 20:16 18.74352 -67.49567 37018 ft 495 kts 133°
2026-04-21 20:17 18.69973 -67.43969 37007 ft 495 kts 133°
2026-04-21 20:17 18.65599 -67.38376 37026 ft 494 kts 133°
2026-04-21 20:18 18.61220 -67.32799 37036 ft 493 kts 133°
2026-04-21 20:18 18.56848 -67.27229 37044 ft 493 kts 133°
2026-04-21 20:19 18.52472 -67.21666 37047 ft 493 kts 133°
2026-04-21 20:19 18.48551 -67.15730 37047 ft 497 kts 118°
2026-04-21 20:20 18.45991 -67.08950 37045 ft 499 kts 111°
2026-04-21 20:20 18.43574 -67.02098 37038 ft 499 kts 112°
2026-04-21 20:21 18.41145 -66.95249 37031 ft 499 kts 112°
2026-04-21 20:21 18.38713 -66.88398 37024 ft 499 kts 112°
2026-04-21 20:22 18.36283 -66.81553 37023 ft 499 kts 112°
2026-04-21 20:22 18.32633 -66.71283 37025 ft 499 kts 112°
2026-04-21 20:23 18.30196 -66.64445 37027 ft 499 kts 112°
2026-04-21 20:23 18.27753 -66.57604 36999 ft 499 kts 112°
2026-04-21 20:24 18.25327 -66.50819 37026 ft 498 kts 112°
2026-04-21 20:24 18.22886 -66.43999 37027 ft 498 kts 112°
2026-04-21 20:25 18.20446 -66.37191 37020 ft 497 kts 112°
2026-04-21 20:25 18.18011 -66.30383 37020 ft 497 kts 112°
2026-04-21 20:26 18.15570 -66.23577 37009 ft 497 kts 112°
2026-04-21 20:26 18.13125 -66.16775 37010 ft 497 kts 112°
2026-04-21 20:27 18.10678 -66.09973 37017 ft 497 kts 112°
2026-04-21 20:27 18.08225 -66.03180 37009 ft 497 kts 112°
2026-04-21 20:28 18.05770 -65.96389 37011 ft 497 kts 112°
2026-04-21 20:28 18.03321 -65.89601 37013 ft 497 kts 112°
2026-04-21 20:29 18.00869 -65.82808 37006 ft 497 kts 112°
2026-04-21 20:29 17.98409 -65.76026 37006 ft 497 kts 112°
2026-04-21 20:30 17.95950 -65.69247 37012 ft 497 kts 112°
2026-04-21 20:30 17.93491 -65.62466 37012 ft 497 kts 112°
2026-04-21 20:31 17.91029 -65.55689 37016 ft 497 kts 112°
2026-04-21 20:31 17.88562 -65.48916 37009 ft 497 kts 112°
2026-04-21 20:32 17.86091 -65.42144 37010 ft 497 kts 112°
2026-04-21 20:32 17.83623 -65.35371 37008 ft 497 kts 112°
2026-04-21 20:33 17.81151 -65.28597 37008 ft 497 kts 112°
2026-04-21 20:33 17.78675 -65.21831 37009 ft 497 kts 112°
2026-04-21 20:34 17.76194 -65.15071 37005 ft 496 kts 112°
2026-04-21 20:34 17.73711 -65.08316 37016 ft 496 kts 112°
2026-04-21 20:35 17.71235 -65.01568 37019 ft 496 kts 112°
2026-04-21 20:35 17.68759 -64.94824 37023 ft 495 kts 112°
2026-04-21 20:36 17.66281 -64.88081 37021 ft 495 kts 112°
2026-04-21 20:36 17.63820 -64.81390 37020 ft 495 kts 112°
2026-04-21 20:37 17.61335 -64.74659 37020 ft 495 kts 112°
2026-04-21 20:37 17.59015 -64.68383 37024 ft 495 kts 112°
2026-04-21 20:38 17.56531 -64.61654 37023 ft 495 kts 112°
2026-04-21 20:38 17.54922 -64.57309 37022 ft 495 kts 112°
2026-04-21 20:39 17.53691 -64.53981 37013 ft 482 kts 112°
2026-04-21 20:39 17.52504 -64.50763 37021 ft 470 kts 112°
2026-04-21 20:39 17.50167 -64.44449 37015 ft 462 kts 113°
2026-04-21 20:40 17.47836 -64.38177 37016 ft 462 kts 113°
2026-04-21 20:40 17.45503 -64.31914 37012 ft 462 kts 113°
2026-04-21 20:41 17.43170 -64.25652 37013 ft 462 kts 113°
2026-04-21 20:41 17.40836 -64.19394 37005 ft 461 kts 113°
2026-04-21 20:42 17.38506 -64.13137 37004 ft 461 kts 113°
2026-04-21 20:42 17.36172 -64.06880 36998 ft 461 kts 113°
2026-04-21 20:43 17.33839 -64.00623 37002 ft 461 kts 113°
2026-04-21 20:43 17.31504 -63.94370 36996 ft 461 kts 113°
2026-04-21 20:44 17.29170 -63.88117 36991 ft 461 kts 113°
2026-04-21 20:44 17.26835 -63.81867 36988 ft 461 kts 113°
2026-04-21 20:45 17.24490 -63.75636 36998 ft 460 kts 113°
2026-04-21 20:45 17.22143 -63.69412 37005 ft 460 kts 113°
2026-04-21 20:46 17.21558 -63.67859 37004 ft 460 kts 113°
2026-04-21 21:09 17.20306 -63.64495 36946 ft 466 kts 113°
2026-04-21 21:09 17.19103 -63.61304 36726 ft 478 kts 113°
2026-04-21 21:09 17.17868 -63.58038 36481 ft 487 kts 113°
2026-04-21 21:10 17.16617 -63.54730 36233 ft 491 kts 113°
2026-04-21 21:10 17.15360 -63.51397 35982 ft 493 kts 113°
2026-04-21 21:10 17.14094 -63.48047 35154 ft 499 kts 112°
2026-04-21 21:10 17.12821 -63.44675 34613 ft 496 kts 112°
2026-04-21 21:11 17.11556 -63.41324 34001 ft 495 kts 112°
2026-04-21 21:11 17.10294 -63.37979 33343 ft 493 kts 112°
2026-04-21 21:11 17.09040 -63.34657 32745 ft 490 kts 112°
2026-04-21 21:11 17.07791 -63.31348 32143 ft 488 kts 112°
2026-04-21 21:12 17.06678 -63.28406 31614 ft 486 kts 112°
2026-04-21 21:12 17.05438 -63.25131 31024 ft 484 kts 111°
2026-04-21 21:12 17.04205 -63.21869 30440 ft 482 kts 111°
2026-04-21 21:12 17.02992 -63.18664 29841 ft 480 kts 111°
2026-04-21 21:13 17.01749 -63.15392 29242 ft 476 kts 111°
2026-04-21 21:13 17.00530 -63.12194 28683 ft 472 kts 111°
2026-04-21 21:13 16.99324 -63.09025 28152 ft 467 kts 111°
2026-04-21 21:13 16.98144 -63.05928 27625 ft 463 kts 112°
2026-04-21 21:14 16.96964 -63.02827 27179 ft 457 kts 112°
2026-04-21 21:14 16.95787 -62.99747 26660 ft 454 kts 113°
2026-04-21 21:14 16.94528 -62.96749 26207 ft 448 kts 115°
2026-04-21 21:14 16.93179 -62.93831 25730 ft 444 kts 117°
2026-04-21 21:15 16.91775 -62.90972 25265 ft 440 kts 118°
2026-04-21 21:15 16.90357 -62.88147 24802 ft 437 kts 118°
2026-04-21 21:15 16.88961 -62.85349 24321 ft 434 kts 118°
2026-04-21 21:15 16.87600 -62.82560 23983 ft 428 kts 117°
2026-04-21 21:16 16.86275 -62.79790 23510 ft 426 kts 117°
2026-04-21 21:16 16.84971 -62.77028 23015 ft 422 kts 117°
2026-04-21 21:16 16.83684 -62.74290 22551 ft 418 kts 117°
2026-04-21 21:16 16.82510 -62.71798 22136 ft 415 kts 117°
2026-04-21 21:17 16.81238 -62.69111 21692 ft 411 kts 117°
2026-04-21 21:17 16.79976 -62.66451 21259 ft 407 kts 116°
2026-04-21 21:17 16.78723 -62.63819 20832 ft 403 kts 116°
2026-04-21 21:17 16.77481 -62.61211 20409 ft 399 kts 116°
2026-04-21 21:18 16.76254 -62.58628 19988 ft 396 kts 116°
2026-04-21 21:18 16.75038 -62.56069 19534 ft 390 kts 116°
2026-04-21 21:18 16.73840 -62.53555 18782 ft 385 kts 116°
2026-04-21 21:18 16.72656 -62.51073 18079 ft 378 kts 116°
2026-04-21 21:19 16.71506 -62.48663 17640 ft 363 kts 116°
2026-04-21 21:19 16.70400 -62.46351 17237 ft 350 kts 116°
2026-04-21 21:19 16.69335 -62.44124 16850 ft 337 kts 116°
2026-04-21 21:19 16.68306 -62.41971 16477 ft 328 kts 116°
2026-04-21 21:20 16.67300 -62.39861 16112 ft 322 kts 115°
2026-04-21 21:20 16.66314 -62.37788 15753 ft 318 kts 115°
2026-04-21 21:20 16.65345 -62.35748 15391 ft 317 kts 115°
2026-04-21 21:20 16.64366 -62.33694 15042 ft 316 kts 115°
2026-04-21 21:21 16.63374 -62.31618 14679 ft 316 kts 115°
2026-04-21 21:21 16.62404 -62.29593 14326 ft 317 kts 115°
2026-04-21 21:21 16.61416 -62.27528 13911 ft 321 kts 115°
2026-04-21 21:21 16.60423 -62.25453 13558 ft 319 kts 115°
2026-04-21 21:22 16.59431 -62.23385 13187 ft 319 kts 115°
2026-04-21 21:22 16.58441 -62.21320 12814 ft 318 kts 115°
2026-04-21 21:22 16.57454 -62.19261 12440 ft 317 kts 115°
2026-04-21 21:22 16.56363 -62.17267 12061 ft 317 kts 125°
2026-04-21 21:23 16.54920 -62.15535 11674 ft 316 kts 134°
2026-04-21 21:23 16.53380 -62.13896 11301 ft 316 kts 134°
2026-04-21 21:23 16.51850 -62.12265 10910 ft 316 kts 134°
2026-04-21 21:23 16.50330 -62.10643 10611 ft 311 kts 134°
2026-04-21 21:24 16.48816 -62.09026 10275 ft 309 kts 134°
2026-04-21 21:24 16.47329 -62.07437 9983 ft 305 kts 134°
2026-04-21 21:24 16.45854 -62.05861 9607 ft 303 kts 134°
2026-04-21 21:24 16.44391 -62.04295 9227 ft 301 kts 134°
2026-04-21 21:25 16.42934 -62.02740 8830 ft 299 kts 134°
2026-04-21 21:25 16.41484 -62.01193 8447 ft 297 kts 134°
2026-04-21 21:25 16.40046 -61.99654 8059 ft 295 kts 134°
2026-04-21 21:25 16.38619 -61.98129 7682 ft 293 kts 134°
2026-04-21 21:26 16.37197 -61.96615 7278 ft 292 kts 134°
2026-04-21 21:26 16.35782 -61.95109 6893 ft 290 kts 134°
2026-04-21 21:26 16.34496 -61.93516 6531 ft 286 kts 121°
2026-04-21 21:26 16.33658 -61.91658 6132 ft 282 kts 105°
2026-04-21 21:27 16.33247 -61.89686 5850 ft 273 kts 99°
2026-04-21 21:27 16.32902 -61.87786 5377 ft 266 kts 99°
2026-04-21 21:27 16.32563 -61.85936 5103 ft 253 kts 99°
2026-04-21 21:27 16.32244 -61.84197 4963 ft 236 kts 100°
2026-04-21 21:28 16.31944 -61.82567 4857 ft 222 kts 99°
2026-04-21 21:28 16.31664 -61.81043 4756 ft 208 kts 99°
2026-04-21 21:28 16.31132 -61.78141 4573 ft 203 kts 99°
2026-04-21 21:29 16.30868 -61.76702 4469 ft 203 kts 99°
2026-04-21 21:29 16.30601 -61.75253 4180 ft 204 kts 98°
2026-04-21 21:29 16.30333 -61.73794 3872 ft 206 kts 99°
2026-04-21 21:29 16.30064 -61.72332 3540 ft 205 kts 99°
2026-04-21 21:30 16.29799 -61.70893 3258 ft 200 kts 99°
2026-04-21 21:30 16.29540 -61.69488 2981 ft 196 kts 99°
2026-04-21 21:30 16.29284 -61.68101 2706 ft 193 kts 98°
2026-04-21 21:30 16.29033 -61.66738 2448 ft 191 kts 98°
2026-04-21 21:31 16.28784 -61.65391 2183 ft 188 kts 97°
2026-04-21 21:31 16.28540 -61.64065 1926 ft 185 kts 98°
2026-04-21 21:31 16.28302 -61.62776 1675 ft 178 kts 98°
2026-04-21 21:31 16.28074 -61.61539 1451 ft 168 kts 100°
2026-04-21 21:32 16.27866 -61.60420 1205 ft 152 kts 98°
2026-04-21 21:32 16.27675 -61.59388 1016 ft 140 kts 100°
2026-04-21 21:32 16.27493 -61.58395 837 ft 139 kts 97°
2026-04-21 21:32 16.27310 -61.57403 651 ft 139 kts 99°
2026-04-21 21:33 16.27127 -61.56413 459 ft 140 kts 99°
2026-04-21 21:33 16.26941 -61.55406 225 ft 139 kts 97°
2026-04-21 21:33 16.26760 -61.54433 49 ft 139 kts 96°
2026-04-21 21:33 16.26599 -61.53537 24 ft 103 kts 101°
2026-04-21 21:34 16.26494 -61.52981 19 ft 54 kts 102°
2026-04-21 21:34 16.26447 -61.52727 22 ft 29 kts 103°
2026-04-21 21:34 16.26409 -61.52530 20 ft 25 kts 100°
2026-04-21 21:34 16.26381 -61.52374 25 ft 19 kts 101°
2026-04-21 21:35 16.26375 -61.52254 27 ft 15 kts 62°
2026-04-21 21:35 16.26459 -61.52223 30 ft 12 kts
2026-04-21 21:35 16.26557 -61.52204 21 ft 17 kts 11°
2026-04-21 21:35 16.26676 -61.52184 21 ft 18 kts 358°
2026-04-21 21:36 16.26738 -61.52281 21 ft 19 kts 280°
2026-04-21 21:36 16.26765 -61.52422 23 ft 21 kts 282°
2026-04-21 21:36 16.26793 -61.52570 21 ft 18 kts 281°
2026-04-21 21:36 16.26811 -61.52668 22 ft 9 kts 280°
2026-04-21 21:37 16.26837 -61.52691 21 ft 4 kts 356°
2026-04-21 21:37 16.26875 -61.52681 21 ft 6 kts 13°
2026-04-21 21:37 16.26905 -61.52675 21 ft 2 kts 10°
2026-04-21 21:37 16.26917 -61.52673 21 ft 1 kts 10°
2026-04-21 21:38 16.26918 -61.52673 21 ft 0 kts 10°